User: anonymous   Login
Location: Bothwell
(42.3833°S, 147.0000°E)
Time: 17:36:34
(UTC+10:00)
Language:

XW-2A - Orbit

View from above orbital plane
View from above orbital plane
View from above satellite
View from above satellite

Ground track
Ground track

The orbit data is extracted from the following two-line orbital elements,

1 40903U 15049E   23112.43632650  .18814400  25108-5  15498-3 0  9990
2 40903  97.0819 181.5568 0011783 175.5276 309.8044 16.51931608427640
Epoch (UTC): 22 April 2023 10:28:18
Eccentricity: 0.0011783
inclination: 97.0819°
perigee height: 126 km
apogee height: 142 km
right ascension of ascending node: 181.5568°
argument of perigee: 175.5276°
revolutions per day: 16.51931608
mean anomaly at epoch: 309.8044°
orbit number at epoch: 42764

The dashed part of the orbit path shows where the satellite is in the earth's shadow,  

DLR